Location: Unspecified
(0.0000°N, 0.0000°E)
Time: 18:05:07
(UTC+00:00)

Vanguard 3 - Pass Details

Date: 10 February 2023
Orbit: 509 x 3249 km, 33.3° (Epoch: 20 March)

Event Time Altitude Azimuth Distance (km) Brightness Sun altitude
Rises 00:58:15 0° 303° (WNW) 6,442 - -71.9°
Reaches altitude 10° 01:02:06 10° 302° (WNW) 5,673 - -71.3°
Maximum altitude 01:21:05 79° 217° (SW) 3,289 - -68.0°
Exits shadow 01:30:38 41° 138° (SE) 3,992 10.5 -66.2°
Drops below altitude 10° 01:39:31 10° 131° (SE) 5,516 11.6 -64.4°
Sets 01:43:13 0° 130° (SE) 6,263 12.1 -63.7°
